Location: Astronomy Club of Akron Observatory
(40.9700°N, 81.5606°W)
Time: 00:06:46
(UTC-04:00)

Cosmos 1441 Rocket - Visible Passes

Search period start: 20 June 2018 00:00
Search period end: 30 June 2018 00:00
Orbit: 498 x 542 km, 81.1° (Epoch: 19 June)

Date Brightness Start Highest point End Pass type
(mag) Time Alt. Az. Time Alt. Az. Time Alt. Az.
20 Jun 4.3 00:31:04 10° N 00:34:02 36° NE 00:34:02 36° NE visible
20 Jun 5.8 02:08:37 10° WNW 02:09:07 11° WNW 02:09:07 11° WNW visible
21 Jun 4.4 00:17:25 10° N 00:20:24 32° ENE 00:20:24 32° ENE visible
21 Jun 5.7 01:54:28 10° NW 01:55:29 13° WNW 01:55:29 13° WNW visible
22 Jun 4.5 00:03:47 10° NNE 00:06:47 29° ENE 00:06:47 29° ENE visible
22 Jun 5.6 01:40:26 10° NW 01:41:52 15° WNW 01:41:52 15° WNW visible
22 Jun 4.7 23:50:11 10° NNE 23:53:10 25° ENE 23:53:10 25° ENE visible
23 Jun 5.4 01:26:29 10° NW 01:28:16 17° WNW 01:28:16 17° WNW visible
23 Jun 4.8 23:36:35 10° NNE 23:39:34 22° ENE 23:39:34 22° ENE visible
24 Jun 5.2 01:12:32 10° NW 01:14:40 20° WNW 01:14:40 20° WNW visible
24 Jun 4.9 23:23:02 10° NNE 23:25:51 20° ENE 23:26:00 20° ENE visible
25 Jun 5.0 00:58:39 10° NW 01:01:05 23° WNW 01:01:05 23° WNW visible
25 Jun 5.1 23:09:30 10° NNE 23:12:04 17° ENE 23:12:25 17° ENE visible
26 Jun 4.8 00:44:48 10° NNW 00:47:31 27° WNW 00:47:31 27° WNW visible
26 Jun 5.2 22:56:01 10° NNE 22:58:16 15° ENE 22:58:52 15° E visible
27 Jun 4.5 00:30:57 10° NNW 00:33:58 32° W 00:33:58 32° W visible
27 Jun 5.3 22:42:38 10° NE 22:44:29 13° ENE 22:45:20 12° E visible
28 Jun 4.2 00:17:08 10° NNW 00:20:26 37° W 00:20:26 37° W visible
28 Jun 5.4 22:29:23 10° NE 22:30:41 11° ENE 22:31:48 10° E visible
29 Jun 3.9 00:03:19 10° NNW 00:06:54 44° W 00:06:54 44° W visible
29 Jun 3.6 23:49:32 10° NNW 23:53:12 52° W 23:53:24 51° WSW visible
